Location: Schommer Observatory
(40.5200°N, 74.4500°W)
Time: 08:21:08
(UTC-05:00)

Tiangong 2 - Visible Passes

Search period start: 21 January 2019 00:00
Search period end: 31 January 2019 00:00
Orbit: 380 x 392 km, 42.8° (Epoch: 20 January)

Date Brightness Start Highest point End Pass type
(mag) Time Alt. Az. Time Alt. Az. Time Alt. Az.
21 Jan 3.1 05:05:44 27° ENE 05:05:44 27° ENE 05:07:22 10° ENE visible
21 Jan 1.3 06:37:59 10° WNW 06:41:09 59° N 06:44:20 10° E visible
22 Jan 1.3 05:41:43 50° NNW 05:42:04 54° N 05:45:13 10° E visible
23 Jan 4.2 04:45:26 15° ENE 04:45:26 15° ENE 04:46:07 10° ENE visible
23 Jan 1.1 06:17:41 18° WNW 06:19:56 75° NNE 06:23:08 10° E visible
24 Jan 1.8 05:21:24 49° NE 05:21:24 49° NE 05:24:01 10° E visible
25 Jan 1.0 05:57:21 33° W 05:58:39 77° SSW 06:01:50 10° ESE visible
26 Jan 3.2 05:01:06 28° E 05:01:06 28° E 05:02:47 10° E visible
26 Jan 2.5 06:33:25 10° W 06:36:13 28° SSW 06:39:01 10° SSE visible
27 Jan 1.5 05:37:08 46° SW 05:37:17 47° SSW 05:40:21 10° SE visible
28 Jan 4.3 04:40:57 14° ESE 04:40:57 14° ESE 04:41:27 10° ESE visible
28 Jan 3.2 06:13:13 13° WSW 06:14:42 16° SW 06:16:48 10° S visible
29 Jan 3.2 05:17:07 20° S 05:17:07 20° S 05:18:35 10° SSE visible
